Weather History for Maple Lake, MN

Change the Weather History Date:

Sunday, April 7, 2013

  Actual Average (KSTC) Record (KSTC)
Temperature  
Mean Temperature 40 °F 40 °F  
Max Temperature 46 °F 52 °F 78 °F (1988)
Min Temperature 34 °F 29 °F 9 °F (1997)
Degree Days  
Heating Degree Days 25 25  
Month to date heating degree days 184  
Since 1 July heating degree days 7734  
Cooling Degree Days 0 0  
Month to date cooling degree days 0  
Year to date cooling degree days 0  
Moisture  
Dew Point 33 °F    
Average Humidity 82    
Maximum Humidity 97    
Minimum Humidity 66    
Precipitation  
Precipitation 0.06 in 0.07 in 1.10 in (2001)
Month to date precipitation 0.49  
Year to date precipitation 3.28  
Snow  
Snow 0.00 in 0.10 in 3.50 in (1909)
Month to date snowfall 1.0  
Since 1 July snowfall 43.7  
Snow Depth -    
Sea Level Pressure  
Sea Level Pressure 29.84 in    
Wind  
Wind Speed 5 mph (East)    
Max Wind Speed 8 mph    
Max Gust Speed -    
Visibility 9 miles    
Events Rain    
T = Trace of Precipitation, MM = Missing Value Source: NWS Daily Summary

Daily Weather History Graph

Daily Weather History Graph

Search for Another Location

Airport:

Trip Planner

Search our weather history database for the weather conditions in past years. The results will help you decide how hot, cold, wet, or windy it might be!

Date:

Astronomy

Apr. 07, 2013 Rise Set
Actual Time 6:44 AM CDT 7:51 PM CDT
Civil Twilight 6:14 AM CDT 8:22 PM CDT
Nautical Twilight 5:38 AM CDT 8:58 PM CDT
Astronomical Twilight 5:00 AM CDT 9:36 PM CDT
Moon 5:09 AM CDT (4/7) 5:19 PM CDT (4/7)
Length of Visible Light 14h 07m
Length of Day
13h 07m
Waning Crescent, 8% of the Moon is Illuminated
Apr 7
Waning Crescent
Apr 10
New
Apr 18
First Quarter
Apr 25
Full
May 2
Last Quarter

Hourly Weather History & Observations

Time (CDT) Temp. Windchill Dew Point Humidity Pressure Visibility Wind Dir Wind Speed Gust Speed Precip Events Conditions
12:16 AM 36.0 °F 30.3 °F 33.1 °F 89% 29.77 in 10.0 mi WNW 6.9 mph - N/A   Overcast
12:36 AM 36.0 °F 30.3 °F 32.9 °F 89% 29.78 in 10.0 mi WNW 6.9 mph - N/A   Overcast
12:56 AM 35.8 °F 29.4 °F 32.9 °F 89% 29.78 in 10.0 mi WNW 8.1 mph - N/A   Overcast
1:16 AM 35.6 °F 29.2 °F 32.4 °F 88% 29.79 in 10.0 mi WNW 8.1 mph - N/A   Overcast
1:36 AM 34.5 °F 28.6 °F 32.0 °F 90% 29.79 in 10.0 mi WNW 6.9 mph - N/A   Mostly Cloudy
1:56 AM 34.9 °F 29.9 °F 32.4 °F 91% 29.80 in 10.0 mi WNW 5.8 mph - N/A   Mostly Cloudy
2:16 AM 35.2 °F 30.3 °F 32.4 °F 89% 29.80 in 10.0 mi WNW 5.8 mph - N/A   Overcast
2:36 AM 35.2 °F 30.3 °F 32.4 °F 89% 29.80 in 10.0 mi NW 5.8 mph - N/A   Overcast
2:56 AM 35.1 °F 29.3 °F 32.2 °F 89% 29.80 in 10.0 mi NW 6.9 mph - N/A   Overcast
3:16 AM 35.1 °F 29.3 °F 32.0 °F 89% 29.80 in 10.0 mi NW 6.9 mph - N/A   Overcast
3:36 AM 35.1 °F 29.3 °F 32.0 °F 89% 29.80 in 10.0 mi NW 6.9 mph - N/A   Overcast
3:56 AM 35.1 °F 29.3 °F 31.8 °F 88% 29.81 in 10.0 mi NW 6.9 mph - N/A   Overcast
4:16 AM 35.1 °F 29.3 °F 31.8 °F 88% 29.82 in 10.0 mi NW 6.9 mph - N/A   Overcast
4:36 AM 35.1 °F 30.1 °F 31.6 °F 87% 29.83 in 10.0 mi WNW 5.8 mph - N/A   Overcast
4:56 AM 34.9 °F 29.9 °F 31.1 °F 86% 29.83 in 10.0 mi NW 5.8 mph - N/A   Overcast
5:15 AM 34.7 °F 29.6 °F 31.5 °F 88% 29.84 in 10.0 mi NW 5.8 mph - N/A   Overcast
5:36 AM 34.7 °F 28.8 °F 31.1 °F 87% 29.85 in 10.0 mi NW 6.9 mph - N/A   Overcast
5:56 AM 34.7 °F 28.1 °F 30.9 °F 86% 29.86 in 10.0 mi NW 8.1 mph - N/A   Overcast
6:16 AM 34.5 °F 30.4 °F 30.9 °F 87% 29.86 in 10.0 mi NW 4.6 mph - N/A   Overcast
6:35 AM 34.3 °F 29.2 °F 30.9 °F 87% 29.87 in 10.0 mi NW 5.8 mph - N/A   Overcast
6:56 AM 34.3 °F 31.4 °F 31.1 °F 88% 29.87 in 10.0 mi NNW 3.5 mph - N/A   Overcast
7:16 AM 34.3 °F 30.2 °F 30.9 °F 87% 29.87 in 10.0 mi NNW 4.6 mph - N/A   Overcast
7:36 AM 34.3 °F 30.2 °F 30.9 °F 87% 29.88 in 10.0 mi NNW 4.6 mph - N/A   Overcast
7:56 AM 34.7 °F - 30.7 °F 85% 29.89 in 10.0 mi Calm Calm - N/A   Overcast
8:16 AM 34.9 °F 29.9 °F 30.2 °F 83% 29.90 in 10.0 mi NNW 5.8 mph - N/A   Overcast
8:36 AM 34.9 °F 32.0 °F 30.6 °F 84% 29.90 in 10.0 mi NNW 3.5 mph - N/A   Overcast
8:56 AM 34.9 °F 32.0 °F 30.2 °F 83% 29.90 in 10.0 mi WNW 3.5 mph - N/A   Overcast
9:16 AM 35.1 °F 31.0 °F 30.2 °F 82% 29.90 in 10.0 mi NNW 4.6 mph - N/A   Overcast
9:36 AM 35.6 °F 32.8 °F 30.6 °F 82% 29.90 in 10.0 mi WNW 3.5 mph - N/A   Overcast
9:56 AM 35.2 °F - 30.0 °F 81% 29.91 in 10.0 mi Calm Calm - N/A   Overcast
10:16 AM 35.2 °F - 29.8 °F 81% 29.92 in 10.0 mi Calm Calm - N/A   Overcast
10:36 AM 35.6 °F - 30.0 °F 80% 29.92 in 10.0 mi Calm Calm - N/A   Overcast
10:56 AM 36.1 °F - 30.9 °F 81% 29.93 in 10.0 mi Calm Calm - N/A   Overcast
11:15 AM 36.7 °F 34.1 °F 30.6 °F 78% 29.92 in 10.0 mi SE 3.5 mph - N/A   Overcast
11:36 AM 36.9 °F 34.3 °F 30.9 °F 79% 29.94 in 10.0 mi South 3.5 mph - N/A   Overcast
11:56 AM 37.2 °F 33.6 °F 31.1 °F 79% 29.94 in 10.0 mi SSE 4.6 mph - N/A   Overcast
12:16 PM 37.4 °F - 30.7 °F 77% 29.93 in 10.0 mi Calm Calm - N/A   Overcast
12:36 PM 38.3 °F 34.8 °F 31.5 °F 76% 29.91 in 10.0 mi East 4.6 mph - N/A   Overcast
12:56 PM 38.7 °F 36.3 °F 32.0 °F 77% 29.91 in 10.0 mi ESE 3.5 mph - N/A   Overcast
1:16 PM 39.2 °F - 32.0 °F 75% 29.90 in 10.0 mi Calm Calm - N/A   Overcast
1:36 PM 39.9 °F 36.7 °F 32.4 °F 74% 29.90 in 10.0 mi ESE 4.6 mph - N/A   Overcast
1:56 PM 40.3 °F 37.1 °F 33.1 °F 75% 29.90 in 10.0 mi SSE 4.6 mph - N/A   Overcast
2:16 PM 41.0 °F 37.1 °F 33.4 °F 74% 29.89 in 10.0 mi SE 5.8 mph - N/A   Overcast
2:36 PM 42.3 °F 39.4 °F 34.0 °F 72% 29.88 in 10.0 mi SSE 4.6 mph - N/A   Mostly Cloudy
2:56 PM 42.3 °F 37.9 °F 33.8 °F 72% 29.87 in 10.0 mi ESE 6.9 mph - N/A   Overcast
3:16 PM 43.0 °F 40.3 °F 34.0 °F 71% 29.86 in 10.0 mi ESE 4.6 mph - N/A   Scattered Clouds
3:36 PM 44.2 °F 40.3 °F 34.7 °F 69% 29.85 in 10.0 mi ESE 6.9 mph - N/A   Scattered Clouds
3:56 PM 44.6 °F 41.4 °F 35.2 °F 70% 29.85 in 10.0 mi SE 5.8 mph - N/A   Scattered Clouds
4:15 PM 45.0 °F 42.6 °F 35.2 °F 69% 29.83 in 10.0 mi SE 4.6 mph - N/A   Clear
4:36 PM 45.3 °F 41.6 °F 35.4 °F 68% 29.82 in 10.0 mi SE 6.9 mph - N/A   Clear
4:56 PM 45.3 °F 41.6 °F 35.6 °F 69% 29.82 in 10.0 mi SE 6.9 mph - N/A   Clear
5:16 PM 46.4 °F 43.5 °F 35.8 °F 67% 29.82 in 10.0 mi SE 5.8 mph - N/A   Clear
5:36 PM 46.2 °F 44.1 °F 35.4 °F 66% 29.82 in 10.0 mi SE 4.6 mph - N/A   Clear
5:55 PM 45.5 °F 41.8 °F 35.8 °F 69% 29.83 in 10.0 mi SSE 6.9 mph - N/A   Clear
6:16 PM 45.5 °F 43.2 °F 36.1 °F 70% 29.83 in 10.0 mi SSE 4.6 mph - N/A   Clear
6:36 PM 44.6 °F 42.2 °F 36.1 °F 72% 29.82 in 10.0 mi SE 4.6 mph - N/A   Clear
6:56 PM 44.2 °F 41.0 °F 36.0 °F 73% 29.83 in 10.0 mi SSE 5.8 mph - N/A   Clear
7:15 PM 43.7 °F 42.1 °F 36.1 °F 75% 29.82 in 10.0 mi SE 3.5 mph - N/A   Scattered Clouds
7:36 PM 43.0 °F - 36.1 °F 77% 29.82 in 10.0 mi Calm Calm - N/A   Mostly Cloudy
7:56 PM 41.9 °F - 36.0 °F 79% 29.82 in 10.0 mi Calm Calm - N/A   Overcast
8:16 PM 42.8 °F - 36.0 °F 77% 29.82 in 10.0 mi Calm Calm - N/A   Light Drizzle
8:36 PM 41.2 °F 38.2 °F 36.1 °F 82% 29.81 in 10.0 mi East 4.6 mph - N/A   Drizzle
8:56 PM 41.5 °F 37.1 °F 37.2 °F 85% 29.80 in 10.0 mi East 6.9 mph - N/A   Light Drizzle
9:16 PM 41.9 °F 38.2 °F 37.4 °F 84% 29.80 in 10.0 mi East 5.8 mph - N/A   Light Drizzle
9:36 PM 41.0 °F 37.1 °F 37.4 °F 87% 29.80 in 7.0 mi East 5.8 mph - N/A   Drizzle
9:56 PM 40.5 °F 38.4 °F 37.6 °F 89% 29.80 in 7.0 mi ESE 3.5 mph - N/A   Drizzle
10:16 PM 40.1 °F 38.0 °F 38.3 °F 93% 29.81 in 4.0 mi SE 3.5 mph - N/A Rain Rain
10:36 PM 40.1 °F 38.0 °F 38.7 °F 95% 29.80 in 3.0 mi ESE 3.5 mph - 0.02 in Rain Rain
10:56 PM 40.1 °F 36.9 °F 39.0 °F 96% 29.78 in 3.0 mi East 4.6 mph - 0.04 in Rain Rain
11:16 PM 39.9 °F 35.8 °F 39.0 °F 97% 29.78 in 3.0 mi East 5.8 mph - 0.01 in Rain Light Rain
11:36 PM 39.9 °F 37.8 °F 39.2 °F 97% 29.77 in 3.0 mi East 3.5 mph - 0.01 in Rain Light Rain
11:56 PM 39.4 °F 36.1 °F 38.7 °F 97% 29.76 in 2.0 mi East 4.6 mph - 0.02 in Rain Rain